Location: Mohawk View
(42.7837°N, 73.7885°W)
Time: 13:14:30
(UTC+00:00)

Cosmos 1140 Rocket - Pass Details

Date: 17 June 2021
Orbit: 744 x 767 km, 74.1° (Epoch: 26 July)

Event Time Altitude Azimuth Distance (km) Brightness Sun altitude
Rises 01:24:34 0° 334° (NNW) 3,245 8.2 -7.9°
Reaches altitude 10° 01:27:01 10° 329° (NNW) 2,315 7.4 -8.2°
Maximum altitude 01:32:03 48° 256° (WSW) 1,004 4.4 -8.9°
Drops below altitude 10° 01:37:02 10° 184° (S) 2,294 5.6 -9.5°
Enters shadow 01:38:49 - 179° (S) 2,970 6.1 -9.8°
